| time (UTC) | temp F | wind direction | speed MPH | gust MPH | rain 1hr in | rain 24hr in | rain mn in | humidity % | barometer mb |
| 20260503200455 | 79 | 227 | 7.0 | 10.0 | 0.00 | 0.00 | 0.00 | 38 | 1014.3 |
| 20260503195951 | 79 | 250 | 2.0 | 3.0 | 0.00 | 0.00 | 0.00 | 40 | 1014.2 |
| 20260503195449 | 79 | 206 | 5.0 | 8.0 | 0.00 | 0.00 | 0.00 | 38 | 1014.3 |
| 20260503194945 | 79 | 196 | 9.0 | 14.0 | 0.00 | 0.00 | 0.00 | 40 | 1014.3 |
| 20260503194442 | 79 | 186 | 9.0 | 12.0 | 0.00 | 0.00 | 0.00 | 39 | 1014.6 |
| 20260503193937 | 79 | 210 | 7.0 | 8.0 | 0.00 | 0.00 | 0.00 | 41 | 1014.5 |
| 20260503193433 | 80 | 274 | 1.0 | 1.0 | 0.00 | 0.00 | 0.00 | 41 | 1014.6 |
| 20260503192929 | 79 | 258 | 2.0 | 3.0 | 0.00 | 0.00 | 0.00 | 44 | 1014.7 |
| 20260503192426 | 78 | 102 | 7.0 | 10.0 | 0.00 | 0.00 | 0.00 | 42 | 1014.6 |
| 20260503191921 | 79 | 202 | 8.0 | 10.0 | 0.00 | 0.00 | 0.00 | 39 | 1014.8 |
| 20260503191419 | 79 | 239 | 8.0 | 11.0 | 0.00 | 0.00 | 0.00 | 40 | 1015.0 |
| 20260503190915 | 78 | 253 | 4.0 | 5.0 | 0.00 | 0.00 | 0.00 | 45 | 1015.0 |
| 20260503190413 | 79 | 210 | 5.0 | 5.0 | 0.00 | 0.00 | 0.00 | 39 | 1015.0 |
| 20260503185909 | 78 | 252 | 0.0 | 1.0 | 0.00 | 0.00 | 0.00 | 44 | 1015.0 |
| 20260503185406 | 77 | 309 | 4.0 | 5.0 | 0.00 | 0.00 | 0.00 | 45 | 1015.4 |
| 20260503184905 | 78 | 218 | 9.0 | 11.0 | 0.00 | 0.00 | 0.00 | 40 | 1015.2 |
| 20260503184402 | 76 | 334 | 6.0 | 7.0 | 0.00 | 0.00 | 0.00 | 44 | 1015.3 |
| 20260503183858 | 77 | 220 | 7.0 | 10.0 | 0.00 | 0.00 | 0.00 | 38 | 1015.4 |
| 20260503183355 | 76 | 230 | 3.0 | 4.0 | 0.00 | 0.00 | 0.00 | 44 | 1015.3 |
| 20260503182852 | 76 | 61 | 5.0 | 8.0 | 0.00 | 0.00 | 0.00 | 41 | 1015.3 |
| 20260503182351 | 76 | 251 | 0.0 | 1.0 | 0.00 | 0.00 | 0.00 | 44 | 1015.6 |
| 20260503181847 | 76 | 188 | 12.0 | 15.0 | 0.00 | 0.00 | 0.00 | 41 | 1015.6 |
| 20260503181345 | 77 | 188 | 9.0 | 11.0 | 0.00 | 0.00 | 0.00 | 42 | 1015.8 |
| 20260503180841 | 76 | 277 | 2.0 | 3.0 | 0.00 | 0.00 | 0.00 | 46 | 1015.8 |
| 20260503180339 | 76 | 221 | 7.0 | 10.0 | 0.00 | 0.00 | 0.00 | 45 | 1015.9 |
| 20260503175835 | 75 | 237 | 4.0 | 5.0 | 0.00 | 0.00 | 0.00 | 44 | 1016.1 |
| 20260503175334 | 76 | 228 | 9.0 | 10.0 | 0.00 | 0.00 | 0.00 | 42 | 1016.3 |
| 20260503174834 | 75 | 239 | 4.0 | 4.0 | 0.00 | 0.00 | 0.00 | 46 | 1016.3 |
| 20260503174334 | 74 | 270 | 2.0 | 3.0 | 0.00 | 0.00 | 0.00 | 43 | 1016.3 |
| 20260503173834 | 74 | 231 | 6.0 | 8.0 | 0.00 | 0.00 | 0.00 | 45 | 1016.4 |
| 20260503173330 | 74 | 233 | 3.0 | 4.0 | 0.00 | 0.00 | 0.00 | 45 | 1016.5 |
| 20260503172827 | 75 | 229 | 4.0 | 5.0 | 0.00 | 0.00 | 0.00 | 47 | 1016.7 |
| 20260503172325 | 75 | 200 | 5.0 | 7.0 | 0.00 | 0.00 | 0.00 | 42 | 1016.6 |
| 20260503171820 | 75 | 240 | 3.0 | 4.0 | 0.00 | 0.00 | 0.00 | 45 | 1016.6 |
| 20260503171318 | 74 | 206 | 1.0 | 3.0 | 0.00 | 0.00 | 0.00 | 46 | 1016.6 |
| 20260503170815 | 74 | 318 | 2.0 | 3.0 | 0.00 | 0.00 | 0.00 | 48 | 1016.7 |
| 20260503170311 | 74 | 229 | 4.0 | 5.0 | 0.00 | 0.00 | 0.00 | 44 | 1016.8 |
| 20260503150704 | 66 | 209 | 11.0 | 12.0 | 0.00 | 0.00 | 0.00 | 49 | 1018.0 |
| 20260503150200 | 65 | 212 | 1.0 | 3.0 | 0.00 | 0.00 | 0.00 | 53 | 1018.1 |
| 20260503140124 | 57 | 195 | 4.0 | 5.0 | 0.00 | 0.00 | 0.00 | 66 | 1018.6 |
| 20260503131053 | 47 | 123 | 0.0 | 0.0 | 0.00 | 0.00 | 0.00 | 99 | 1018.6 |
| 20260503130550 | 46 | 178 | 0.0 | 0.0 | 0.00 | 0.00 | 0.00 | 99 | 1018.8 |
| 20260503110441 | 35 | 280 | 0.0 | 0.0 | 0.00 | 0.00 | 0.00 | 98 | 1018.5 |
| 20260503090332 | 35 | 263 | 0.0 | 0.0 | 0.00 | 0.00 | 0.00 | 98 | 1018.9 |
| 20260503081300 | 35 | 302 | 0.0 | 0.0 | 0.00 | 0.00 | 0.00 | 97 | 1019.0 |
| 20260503080755 | 35 | 302 | 0.0 | 0.0 | 0.00 | 0.00 | 0.00 | 97 | 1019.3 |
| 20260503080253 | 36 | 302 | 0.0 | 0.0 | 0.00 | 0.00 | 0.00 | 97 | 1019.2 |
| 20260503072729 | 36 | 302 | 0.0 | 0.0 | 0.00 | 0.00 | 0.00 | 96 | 1019.5 |
| 20260503072226 | 36 | 302 | 0.0 | 0.0 | 0.00 | 0.00 | 0.00 | 96 | 1019.7 |
| 20260503071723 | 36 | 302 | 0.0 | 0.0 | 0.00 | 0.00 | 0.00 | 96 | 1019.7 |
| 20260503071220 | 37 | 302 | 0.0 | 0.0 | 0.00 | 0.00 | 0.00 | 96 | 1019.7 |
| 20260503070716 | 37 | 302 | 0.0 | 0.0 | 0.00 | 0.00 | 0.00 | 96 | 1019.6 |
| 20260503070215 | 37 | 302 | 0.0 | 0.0 | 0.00 | 0.00 | 0.00 | 96 | 1019.8 |
| 20260503060139 | 38 | 302 | 0.0 | 0.0 | 0.00 | 0.00 | 0.00 | 95 | 1020.2 |
| 20260503054626 | 38 | 302 | 0.0 | 0.0 | 0.00 | 0.00 | 0.00 | 95 | 1020.3 |
| 20260503054123 | 38 | 302 | 0.0 | 0.0 | 0.00 | 0.00 | 0.00 | 94 | 1020.3 |
| 20260503053621 | 39 | 302 | 0.0 | 0.0 | 0.00 | 0.00 | 0.00 | 94 | 1020.4 |
| 20260503053119 | 39 | 302 | 0.0 | 0.0 | 0.00 | 0.00 | 0.00 | 94 | 1020.2 |
| 20260503052615 | 39 | 302 | 0.0 | 0.0 | 0.00 | 0.00 | 0.00 | 94 | 1020.3 |
| 20260503052112 | 39 | 302 | 0.0 | 0.0 | 0.00 | 0.00 | 0.00 | 94 | 1020.4 |
| 20260503051607 | 39 | 302 | 0.0 | 0.0 | 0.00 | 0.00 | 0.00 | 94 | 1020.3 |
| 20260503051105 | 39 | 302 | 0.0 | 0.0 | 0.00 | 0.00 | 0.00 | 93 | 1020.5 |
| 20260503050601 | 39 | 302 | 0.0 | 0.0 | 0.00 | 0.00 | 0.00 | 93 | 1020.3 |
| 20260503050058 | 39 | 302 | 0.0 | 0.0 | 0.00 | 0.00 | 0.00 | 93 | 1020.3 |
| 20260503045555 | 40 | 303 | 0.0 | 0.0 | 0.00 | 0.00 | 0.00 | 93 | 1020.3 |
| 20260503045052 | 40 | 303 | 0.0 | 0.0 | 0.00 | 0.00 | 0.00 | 93 | 1020.2 |
| 20260503044549 | 40 | 303 | 0.0 | 0.0 | 0.00 | 0.00 | 0.00 | 92 | 1020.4 |
| 20260503044047 | 39 | 302 | 0.0 | 0.0 | 0.00 | 0.00 | 0.00 | 92 | 1020.4 |
| 20260503043543 | 40 | 302 | 0.0 | 0.0 | 0.00 | 0.00 | 0.00 | 92 | 1020.3 |
| 20260503043040 | 40 | 302 | 0.0 | 0.0 | 0.00 | 0.00 | 0.00 | 91 | 1020.2 |
| 20260503042537 | 41 | 302 | 0.0 | 0.0 | 0.00 | 0.00 | 0.00 | 91 | 1020.1 |
| 20260503042033 | 41 | 302 | 0.0 | 0.0 | 0.00 | 0.00 | 0.00 | 91 | 1020.2 |
| 20260503041530 | 41 | 302 | 0.0 | 0.0 | 0.00 | 0.00 | 0.00 | 90 | 1020.1 |
| 20260503041028 | 41 | 302 | 0.0 | 0.0 | 0.00 | 0.00 | 0.00 | 90 | 1020.1 |
| 20260503040525 | 41 | 302 | 0.0 | 0.0 | 0.00 | 0.00 | 0.00 | 90 | 1020.2 |
| 20260503040022 | 41 | 303 | 0.0 | 0.0 | 0.00 | 0.00 | 0.00 | 89 | 1020.0 |
| 20260503035519 | 42 | 302 | 0.0 | 0.0 | 0.00 | 0.00 | 0.00 | 89 | 1019.9 |
| 20260503035016 | 42 | 302 | 0.0 | 0.0 | 0.00 | 0.00 | 0.00 | 88 | 1020.1 |
| 20260503034513 | 42 | 302 | 0.0 | 0.0 | 0.00 | 0.00 | 0.00 | 88 | 1020.3 |
| 20260503034010 | 42 | 302 | 0.0 | 0.0 | 0.00 | 0.00 | 0.00 | 88 | 1020.3 |
| 20260503033507 | 42 | 302 | 0.0 | 0.0 | 0.00 | 0.00 | 0.00 | 88 | 1020.4 |
| 20260503033005 | 42 | 302 | 0.0 | 0.0 | 0.00 | 0.00 | 0.00 | 87 | 1020.4 |
| 20260503032504 | 42 | 302 | 0.0 | 0.0 | 0.00 | 0.00 | 0.00 | 87 | 1020.2 |
| 20260503032001 | 43 | 302 | 0.0 | 0.0 | 0.00 | 0.00 | 0.00 | 86 | 1020.1 |
| 20260503031459 | 43 | 302 | 0.0 | 0.0 | 0.00 | 0.00 | 0.00 | 85 | 1020.1 |
| 20260503030955 | 43 | 302 | 0.0 | 0.0 | 0.00 | 0.00 | 0.00 | 85 | 1020.1 |
| 20260503030451 | 44 | 302 | 0.0 | 0.0 | 0.00 | 0.00 | 0.00 | 85 | 1020.0 |
| 20260503025949 | 44 | 302 | 0.0 | 0.0 | 0.00 | 0.00 | 0.00 | 85 | 1020.0 |
| 20260503025445 | 44 | 303 | 0.0 | 0.0 | 0.00 | 0.00 | 0.00 | 84 | 1020.1 |
| 20260503024943 | 44 | 303 | 0.0 | 0.0 | 0.00 | 0.00 | 0.00 | 83 | 1019.8 |
| 20260503024439 | 45 | 303 | 0.0 | 0.0 | 0.00 | 0.00 | 0.00 | 83 | 1020.1 |
| 20260503023937 | 45 | 302 | 0.0 | 0.0 | 0.00 | 0.00 | 0.00 | 82 | 1020.0 |
| 20260503023434 | 45 | 302 | 0.0 | 0.0 | 0.00 | 0.00 | 0.00 | 81 | 1019.8 |
| 20260503022930 | 46 | 303 | 0.0 | 0.0 | 0.00 | 0.00 | 0.00 | 80 | 1020.0 |
| 20260503022425 | 46 | 303 | 0.0 | 0.0 | 0.00 | 0.00 | 0.00 | 80 | 1019.9 |
| 20260503021921 | 46 | 303 | 0.0 | 0.0 | 0.00 | 0.00 | 0.00 | 79 | 1019.8 |
| 20260503021418 | 47 | 303 | 0.0 | 0.0 | 0.00 | 0.00 | 0.00 | 78 | 1019.7 |
| 20260503020915 | 47 | 303 | 0.0 | 0.0 | 0.00 | 0.00 | 0.00 | 77 | 1019.6 |
| 20260503020413 | 48 | 303 | 0.0 | 0.0 | 0.00 | 0.00 | 0.00 | 76 | 1019.5 |
| 20260503015909 | 48 | 303 | 0.0 | 0.0 | 0.00 | 0.00 | 0.00 | 75 | 1019.5 |
| 20260503015406 | 48 | 303 | 0.0 | 0.0 | 0.00 | 0.00 | 0.00 | 73 | 1019.6 |
| 20260503014902 | 49 | 303 | 0.0 | 0.0 | 0.00 | 0.00 | 0.00 | 73 | 1019.7 |
| 20260503014359 | 49 | 303 | 0.0 | 0.0 | 0.00 | 0.00 | 0.00 | 71 | 1019.6 |
| 20260503013857 | 50 | 303 | 0.0 | 0.0 | 0.00 | 0.00 | 0.00 | 71 | 1019.5 |
| 20260503013354 | 50 | 303 | 0.0 | 0.0 | 0.00 | 0.00 | 0.00 | 69 | 1019.4 |
| 20260503012851 | 51 | 303 | 0.0 | 0.0 | 0.00 | 0.00 | 0.00 | 67 | 1019.4 |
| 20260503012349 | 52 | 303 | 0.0 | 0.0 | 0.00 | 0.00 | 0.00 | 67 | 1019.6 |
| 20260503011845 | 52 | 303 | 0.0 | 0.0 | 0.00 | 0.00 | 0.00 | 62 | 1019.3 |
| 20260503011342 | 53 | 303 | 0.0 | 0.0 | 0.00 | 0.00 | 0.00 | 62 | 1019.3 |
| 20260503010839 | 54 | 303 | 0.0 | 0.0 | 0.00 | 0.00 | 0.00 | 61 | 1019.2 |
| 20260503010336 | 55 | 303 | 0.0 | 0.0 | 0.00 | 0.00 | 0.00 | 56 | 1019.2 |
| 20260503005833 | 55 | 303 | 0.0 | 0.0 | 0.00 | 0.00 | 0.00 | 57 | 1019.2 |
| 20260503005331 | 56 | 303 | 0.0 | 0.0 | 0.00 | 0.00 | 0.00 | 57 | 1019.4 |
| 20260503004826 | 57 | 303 | 0.0 | 0.0 | 0.00 | 0.00 | 0.00 | 53 | 1019.3 |
| 20260503004324 | 58 | 301 | 0.0 | 0.0 | 0.00 | 0.00 | 0.00 | 48 | 1019.2 |
| 20260503003821 | 58 | 297 | 0.0 | 0.0 | 0.00 | 0.00 | 0.00 | 45 | 1019.3 |
| 20260503003318 | 59 | 296 | 0.0 | 0.0 | 0.00 | 0.00 | 0.00 | 45 | 1019.0 |
| 20260503002815 | 59 | 295 | 0.0 | 0.0 | 0.00 | 0.00 | 0.00 | 44 | 1019.2 |
| 20260503002312 | 60 | 285 | 0.0 | 0.0 | 0.00 | 0.00 | 0.00 | 44 | 1019.2 |
| 20260503001809 | 60 | 309 | 0.0 | 0.0 | 0.00 | 0.00 | 0.00 | 42 | 1018.9 |
| 20260503001305 | 61 | 295 | 0.0 | 0.0 | 0.00 | 0.00 | 0.00 | 42 | 1019.3 |
| 20260503000802 | 62 | 282 | 0.0 | 0.0 | 0.00 | 0.00 | 0.00 | 41 | 1019.0 |
| 20260503000259 | 63 | 292 | 0.0 | 0.0 | 0.00 | 0.00 | 0.00 | 41 | 1019.3 |
| 20260502235756 | 64 | 279 | 1.0 | 1.0 | 0.00 | 0.00 | 0.00 | 38 | 1018.9 |
| 20260502235254 | 64 | 302 | 1.0 | 1.0 | 0.00 | 0.00 | 0.00 | 39 | 1019.3 |
| 20260502234750 | 64 | 275 | 1.0 | 1.0 | 0.00 | 0.00 | 0.00 | 38 | 1019.2 |
| 20260502234248 | 66 | 324 | 1.0 | 1.0 | 0.00 | 0.00 | 0.00 | 35 | 1019.4 |
| 20260502233743 | 66 | 271 | 2.0 | 3.0 | 0.00 | 0.00 | 0.00 | 32 | 1019.3 |
| 20260502233241 | 66 | 227 | 2.0 | 3.0 | 0.00 | 0.00 | 0.00 | 32 | 1019.2 |
| 20260502232736 | 66 | 291 | 3.0 | 4.0 | 0.00 | 0.00 | 0.00 | 35 | 1019.5 |
| 20260502232233 | 67 | 271 | 1.0 | 3.0 | 0.00 | 0.00 | 0.00 | 32 | 1019.3 |
| 20260502231730 | 66 | 303 | 1.0 | 1.0 | 0.00 | 0.00 | 0.00 | 35 | 1019.3 |
| 20260502231228 | 67 | 299 | 2.0 | 4.0 | 0.00 | 0.00 | 0.00 | 36 | 1019.4 |
| 20260502230727 | 67 | 286 | 1.0 | 1.0 | 0.00 | 0.00 | 0.00 | 34 | 1019.4 |
| 20260502230224 | 68 | 283 | 2.0 | 4.0 | 0.00 | 0.00 | 0.00 | 32 | 1019.4 |
| 20260502225720 | 68 | 278 | 2.0 | 3.0 | 0.00 | 0.00 | 0.00 | 30 | 1019.5 |
| 20260502225218 | 67 | 274 | 1.0 | 1.0 | 0.00 | 0.00 | 0.00 | 31 | 1019.4 |
| 20260502224713 | 68 | 109 | 3.0 | 4.0 | 0.00 | 0.00 | 0.00 | 36 | 1019.4 |
| 20260502224210 | 68 | 4 | 2.0 | 3.0 | 0.00 | 0.00 | 0.00 | 36 | 1019.3 |
| 20260502223708 | 68 | 269 | 2.0 | 3.0 | 0.00 | 0.00 | 0.00 | 34 | 1019.4 |
| 20260502223206 | 68 | 267 | 2.0 | 4.0 | 0.00 | 0.00 | 0.00 | 34 | 1019.4 |
| 20260502222703 | 68 | 274 | 4.0 | 4.0 | 0.00 | 0.00 | 0.00 | 33 | 1019.3 |
| 20260502222200 | 68 | 81 | 0.0 | 1.0 | 0.00 | 0.00 | 0.00 | 37 | 1019.4 |
| 20260502221655 | 67 | 277 | 2.0 | 3.0 | 0.00 | 0.00 | 0.00 | 35 | 1019.3 |
| 20260502221153 | 67 | 274 | 1.0 | 1.0 | 0.00 | 0.00 | 0.00 | 36 | 1019.4 |
| 20260502220649 | 68 | 272 | 3.0 | 4.0 | 0.00 | 0.00 | 0.00 | 34 | 1019.3 |
| 20260502220145 | 67 | 247 | 3.0 | 4.0 | 0.00 | 0.00 | 0.00 | 35 | 1019.4 |
| 20260502215643 | 68 | 265 | 3.0 | 3.0 | 0.00 | 0.00 | 0.00 | 34 | 1019.5 |
| 20260502215139 | 67 | 267 | 0.0 | 0.0 | 0.00 | 0.00 | 0.00 | 37 | 1019.4 |
| 20260502214637 | 67 | 274 | 2.0 | 5.0 | 0.00 | 0.00 | 0.00 | 33 | 1019.4 |
| 20260502214133 | 68 | 279 | 4.0 | 4.0 | 0.00 | 0.00 | 0.00 | 34 | 1019.5 |
| 20260502213631 | 66 | 301 | 3.0 | 4.0 | 0.00 | 0.00 | 0.00 | 37 | 1019.5 |
| 20260502213128 | 68 | 273 | 5.0 | 5.0 | 0.00 | 0.00 | 0.00 | 35 | 1019.7 |
| 20260502212627 | 67 | 266 | 3.0 | 4.0 | 0.00 | 0.00 | 0.00 | 34 | 1019.6 |
| 20260502212125 | 68 | 292 | 3.0 | 4.0 | 0.00 | 0.00 | 0.00 | 39 | 1019.7 |
| 20260502211620 | 67 | 295 | 1.0 | 3.0 | 0.00 | 0.00 | 0.00 | 39 | 1019.7 |
| 20260502211117 | 67 | 45 | 4.0 | 4.0 | 0.00 | 0.00 | 0.00 | 35 | 1019.6 |
| 20260502210615 | 67 | 212 | 3.0 | 4.0 | 0.00 | 0.00 | 0.00 | 35 | 1019.8 |
| 20260502210111 | 68 | 272 | 5.0 | 7.0 | 0.00 | 0.00 | 0.00 | 35 | 1019.7 |
| 20260502205608 | 67 | 317 | 2.0 | 3.0 | 0.00 | 0.00 | 0.00 | 39 | 1019.6 |
| 20260502205105 | 68 | 311 | 5.0 | 5.0 | 0.00 | 0.00 | 0.00 | 34 | 1019.6 |
| 20260502204601 | 68 | 307 | 3.0 | 5.0 | 0.00 | 0.00 | 0.00 | 40 | 1020.2 |
| 20260502204100 | 67 | 82 | 1.0 | 1.0 | 0.00 | 0.00 | 0.00 | 38 | 1020.1 |
| 20260502203556 | 66 | 289 | 3.0 | 4.0 | 0.00 | 0.00 | 0.00 | 35 | 1020.1 |
| 20260502203054 | 66 | 275 | 5.0 | 7.0 | 0.00 | 0.00 | 0.00 | 34 | 1020.1 |
| 20260502202549 | 66 | 275 | 4.0 | 4.0 | 0.00 | 0.00 | 0.00 | 38 | 1020.2 |
| 20260502202048 | 66 | 246 | 4.0 | 4.0 | 0.00 | 0.00 | 0.00 | 36 | 1020.2 |
| 20260502201543 | 66 | 264 | 5.0 | 7.0 | 0.00 | 0.00 | 0.00 | 34 | 1020.3 |
| 20260502201040 | 67 | 258 | 2.0 | 3.0 | 0.00 | 0.00 | 0.00 | 37 | 1020.3 |